This demonstration page uses our WeatherBlox Daily Observations layout. Learn more.

Left ArrowRight Arrow

Hourly Observations for May 26, 2021

Temp ( °F °C ) Dew Point ( °F °C ) Humidity (%) Winds ( mph kmh ) Pressure ( in mb ) Visibility ( mi km ) Precip ( " mm )
12:56 am 00:56 Clear 61 16.1 53 11.7 75 75 Calm 30.01 1016 10 16 0.00 0.00
1:56 am 01:56 Clear 62 16.7 53 11.7 73 73 Calm 30.02 1017 10 16 0.00 0.00
2:56 am 02:56 Clear 58 14.4 52 11.1 81 81 Calm 30.03 1017 10 16 0.00 0.00
3:56 am 03:56 Clear 57 13.9 52 11.1 83 83 N 3 6 30.04 1017 10 16 0.00 0.00
4:56 am 04:56 Clear 55 12.8 50 10 83 83 N 7 11 30.05 1018 10 16 0.00 0.00
5:56 am 05:56 Clear 53 11.7 49 9.4 86 86 NNE 8 13 30.07 1018 10 16 0.00 0.00
6:56 am 06:56 Sunny 57 13.9 49 9.4 74 74 undefined N/A 30.08 1019 10 16 0.00 0.00
7:56 am 07:56 Sunny 60 15.6 51 10.6 72 72 NE 10 17 30.11 1020 10 16 0.00 0.00
8:35 am 08:35 Mostly Sunny 63 17 52 11 68 68 ENE 12 19 30.12 1020 10 16 0.00 0.00
8:56 am 08:56 Sunny 63 17.2 50 10 63 63 E 14 22 30.13 1020 10 16 0.00 0.00
9:56 am 09:56 Sunny 65 18.3 51 10.6 61 61 E 15 24 30.11 1020 10 16 0.00 0.00
10:56 am 10:56 Sunny 68 20 53 11.7 59 59 E 18 30 30.09 1019 10 16 0.00 0.00
11:56 am 11:56 Sunny 70 21.1 53 11.7 55 55 E 15 24 30.09 1019 10 16 0.00 0.00
12:56 pm 12:56 Sunny with Nearby Thunderstorms 73 22.8 54 12.2 51 51 E 18 30 30.06 1018 10 16 0.00 0.00
1:13 pm 13:13 Partly Cloudy with Light Rain 72 22 54 12 53 53 ESE 16 26 30.02 1017 9 14 0.00 0.00
1:56 pm 13:56 Mostly Cloudy 72 22.2 57 13.9 59 59 E 9 15 30.06 1018 10 16 0.00 0.00
2:56 pm 14:56 Sunny 76 24.4 57 13.9 52 52 E 18 30 30.01 1016 10 16 0.00 0.00
3:56 pm 15:56 Sunny 78 25.6 56 13.3 47 47 ESE 10 17 29.99 1016 10 16 0.00 0.00
4:56 pm 16:56 Partly Cloudy with Light Rain 81 27.2 60 15.6 49 49 SE 14 22 29.95 1014 10 16 0.00 0.00
5:51 pm 17:51 Partly Cloudy with Nearby Thunderstorms 77 25 55 13 47 47 SE 14 22 29.86 1011 7 11 0.00 0.00
5:56 pm 17:56 Mostly Cloudy with Nearby Thunderstorms 75 23.9 57 13.9 54 54 SE 16 26 29.95 1014 6 10 0.02 0.51
6:23 pm 18:23 Mostly Cloudy 72 22 57 14 61 61 ESE 14 22 29.86 1011 10 16 0.00 0.00
6:48 pm 18:48 Mostly Cloudy with Nearby Thunderstorms 72 22 57 14 61 61 E 12 19 29.85 1011 9 14 0.00 0.00
6:56 pm 18:56 Mostly Cloudy with Thunderstorms 71 21.7 59 15 66 66 E 9 15 29.92 1013 7 11 0.00 0.00
7:56 pm 19:56 Cloudy with Thunderstorms 67 19.4 60 15.6 79 79 NE 10 17 29.91 1013 10 16 0.10 2.54
8:56 pm 20:56 Cloudy with Thunderstorms 62 16.7 60 15.6 93 93 E 13 20 29.97 1015 6 10 0.62 15.75
9:24 pm 21:24 Mostly Cloudy with Light Rain 61 16 59 15 94 94 E 16 26 29.93 1013 10 16 0.05 1.27
9:56 pm 21:56 Partly Cloudy 62 16.7 59 15 90 90 ENE 16 26 29.91 1013 10 16 0.05 1.27
10:56 pm 22:56 Cloudy with Light Rain 62 16.7 60 15.6 93 93 ENE 14 22 29.92 1013 10 16 0.00 0.00
11:20 pm 23:20 Cloudy with Nearby Thunderstorms 63 17 61 16 94 94 WNW 18 30 29.98 1015 10 16 0.02 0.51
11:32 pm 23:32 Cloudy with Strong Thunderstorms 61 16 61 16 100 100 NW 18 30 30.00 1016 4 6 0.30 7.62
11:46 pm 23:46 Cloudy with Rain 63 17 59 15 88 88 N 18 30 29.97 1015 6 10 0.42 10.67
11:56 pm 23:56 Cloudy with Light Rain 60 15.6 58 14.4 93 93 NNE 18 30 29.96 1015 6 10 0.45 11.43

Powered by AerisWeather